AFR435 SKBO-LFPG

Flight info

Callsign AFR435
Flight time N/A
Altitude 23000
Route OSUSU4R AKROB W20 MAVDA/N0500F350 DCT KIKAS UW50 PBL/N0496F370 UP533 IMBAT UP671 MIQ UA551 ONGAL UN669 ELJEZ/M084F370 DCT 23N050W 27N045W/M084F390 31N040W 36N030W DCT VMG DCT 41N020W DCT PASAS/M084F410 DCT BUNAV UN536 TIVLU/N0478F400 DCT COQUE DCT AKEMO DCT TERPO DCT ANG/N0475F300 UN741 KEPER
Aircraft A359/H-SDE2E3GHIJ1J3J4J5LM1ORWXY/LB1D1

Departure

Time 2026-05-08 04:36
Airport El Dorado International Airport (SKBO)

Arrival

Time N/A
Airport Charles de Gaulle International Airport (LFPG)
Time Latitude Longitude Altitude Speed Heading
2026-05-08 03:39 4.69842 -74.13924 8376 ft 0 kts 217°
2026-05-08 04:17 4.69851 -74.13916 8376 ft 4 kts 217°
2026-05-08 04:17 4.69870 -74.13902 8378 ft 3 kts 218°
2026-05-08 04:18 4.69889 -74.13884 8379 ft 4 kts 240°
2026-05-08 04:18 4.69896 -74.13860 8379 ft 4 kts 286°
2026-05-08 04:18 4.69883 -74.13838 8376 ft 4 kts 315°
2026-05-08 04:18 4.69863 -74.13819 8379 ft 4 kts 310°
2026-05-08 04:19 4.69865 -74.13822 8377 ft 4 kts 307°
2026-05-08 04:19 4.69873 -74.13833 8378 ft 3 kts 307°
2026-05-08 04:26 4.69876 -74.13838 8375 ft 3 kts 307°
2026-05-08 04:26 4.69899 -74.13868 8375 ft 6 kts 306°
2026-05-08 04:26 4.69923 -74.13881 8376 ft 4 kts 353°
2026-05-08 04:26 4.69957 -74.13868 8376 ft 6 kts 27°
2026-05-08 04:27 4.69987 -74.13872 8378 ft 5 kts 330°
2026-05-08 04:27 4.70016 -74.13903 8377 ft 8 kts 308°
2026-05-08 04:27 4.70054 -74.13954 8374 ft 10 kts 307°
2026-05-08 04:27 4.70097 -74.14010 8375 ft 10 kts 307°
2026-05-08 04:28 4.70137 -74.14061 8378 ft 9 kts 307°
2026-05-08 04:28 4.70183 -74.14124 8378 ft 14 kts 307°
2026-05-08 04:28 4.70246 -74.14206 8376 ft 15 kts 308°
2026-05-08 04:28 4.70305 -74.14284 8376 ft 13 kts 307°
2026-05-08 04:29 4.70353 -74.14344 8375 ft 7 kts 320°
2026-05-08 04:29 4.70391 -74.14339 8377 ft 6 kts 30°
2026-05-08 04:29 4.70427 -74.14340 8377 ft 5 kts 327°
2026-05-08 04:29 4.70462 -74.14377 8377 ft 9 kts 310°
2026-05-08 04:30 4.70510 -74.14440 8375 ft 13 kts 307°
2026-05-08 04:30 4.70574 -74.14523 8375 ft 17 kts 307°
2026-05-08 04:30 4.70646 -74.14619 8376 ft 17 kts 307°
2026-05-08 04:30 4.70712 -74.14706 8375 ft 15 kts 307°
2026-05-08 04:31 4.70788 -74.14807 8375 ft 20 kts 307°
2026-05-08 04:31 4.70869 -74.14914 8378 ft 19 kts 307°
2026-05-08 04:31 4.70951 -74.15024 8376 ft 20 kts 307°
2026-05-08 04:31 4.71029 -74.15127 8376 ft 18 kts 307°
2026-05-08 04:32 4.71102 -74.15224 8375 ft 17 kts 307°
2026-05-08 04:32 4.71157 -74.15296 8377 ft 7 kts 315°
2026-05-08 04:32 4.71197 -74.15306 8377 ft 6 kts
2026-05-08 04:32 4.71237 -74.15297 8377 ft 3 kts 30°
2026-05-08 04:33 4.71266 -74.15271 8375 ft 10 kts 50°
2026-05-08 04:33 4.71311 -74.15216 8373 ft 7 kts 51°
2026-05-08 04:33 4.71319 -74.15188 8374 ft 4 kts 99°
2026-05-08 04:33 4.71302 -74.15161 8376 ft 5 kts 127°
2026-05-08 04:34 4.71298 -74.15156 8376 ft 0 kts 127°
2026-05-08 04:35 4.71232 -74.15068 8374 ft 44 kts 127°
2026-05-08 04:35 4.70916 -74.14649 8374 ft 103 kts 127°
2026-05-08 04:35 4.70382 -74.13945 8372 ft 153 kts 127°
2026-05-08 04:35 4.69639 -74.12969 8437 ft 190 kts 125°
2026-05-08 04:36 4.68882 -74.11945 9196 ft 179 kts 126°
2026-05-08 04:36 4.68544 -74.10767 9747 ft 180 kts 83°
2026-05-08 04:36 4.69126 -74.09700 10069 ft 182 kts 40°
2026-05-08 04:36 4.70301 -74.09172 10335 ft 188 kts 14°
2026-05-08 04:37 4.71561 -74.08817 10620 ft 191 kts 17°
2026-05-08 04:37 4.72884 -74.08475 10863 ft 200 kts 15°
2026-05-08 04:37 4.74250 -74.08120 11174 ft 199 kts 20°
2026-05-08 04:37 4.75533 -74.07673 11615 ft 193 kts 22°
2026-05-08 04:38 4.76806 -74.07199 11922 ft 198 kts 22°
2026-05-08 04:38 4.78122 -74.06701 12092 ft 211 kts 22°
2026-05-08 04:38 4.79555 -74.06175 12218 ft 226 kts 20°
2026-05-08 04:38 4.81093 -74.05658 12438 ft 238 kts 20°
2026-05-08 04:39 4.82683 -74.05131 12673 ft 249 kts 20°
2026-05-08 04:39 4.84358 -74.04571 13002 ft 257 kts 20°
2026-05-08 04:39 4.86109 -74.03988 13258 ft 271 kts 20°
2026-05-08 04:39 4.87930 -74.03373 13505 ft 284 kts 20°
2026-05-08 04:40 4.89851 -74.02720 13741 ft 297 kts 20°
2026-05-08 04:40 4.91835 -74.02046 13985 ft 310 kts 20°
2026-05-08 04:40 4.93919 -74.01339 14231 ft 323 kts 20°
2026-05-08 04:40 4.96096 -74.00601 14444 ft 335 kts 20°
2026-05-08 04:41 4.98343 -73.99840 14633 ft 347 kts 20°
2026-05-08 04:41 5.00670 -73.99052 14831 ft 358 kts 20°
2026-05-08 04:41 5.03074 -73.98257 15019 ft 369 kts 18°
2026-05-08 04:41 5.05602 -73.97612 15199 ft 378 kts 14°
2026-05-08 04:42 5.08154 -73.97016 15340 ft 386 kts 14°
2026-05-08 04:42 5.10795 -73.96390 15495 ft 393 kts 14°
2026-05-08 04:42 5.13469 -73.95743 15674 ft 397 kts 14°
2026-05-08 04:42 5.16196 -73.95077 15917 ft 401 kts 14°
2026-05-08 04:43 5.18913 -73.94408 16222 ft 403 kts 15°
2026-05-08 04:43 5.21572 -73.93615 16504 ft 404 kts 23°
2026-05-08 04:43 5.23986 -73.92179 16858 ft 403 kts 41°
2026-05-08 04:43 5.25820 -73.90054 17101 ft 404 kts 60°
2026-05-08 04:44 5.26900 -73.87459 17422 ft 404 kts 74°
2026-05-08 04:44 5.27608 -73.84748 17604 ft 408 kts 76°
2026-05-08 04:44 5.28276 -73.81979 17915 ft 408 kts 76°
2026-05-08 04:44 5.28953 -73.79192 18210 ft 411 kts 76°
2026-05-08 04:45 5.29644 -73.76380 18496 ft 413 kts 76°
2026-05-08 04:45 5.30329 -73.73615 18747 ft 414 kts 76°
2026-05-08 04:45 5.31033 -73.70786 18954 ft 417 kts 76°
2026-05-08 04:45 5.31737 -73.67960 19232 ft 417 kts 76°
2026-05-08 04:46 5.32439 -73.65143 19410 ft 420 kts 76°
2026-05-08 04:46 5.33150 -73.62294 19697 ft 420 kts 76°
2026-05-08 04:46 5.33866 -73.59425 19879 ft 423 kts 76°
2026-05-08 04:46 5.34572 -73.56592 20154 ft 423 kts 76°
2026-05-08 04:47 5.35289 -73.53710 20351 ft 426 kts 76°
2026-05-08 04:47 5.36010 -73.50812 20566 ft 427 kts 76°
2026-05-08 04:47 5.36732 -73.47915 20788 ft 429 kts 76°
2026-05-08 04:47 5.37212 -73.45987 20896 ft 431 kts 76°
2026-05-08 04:48 5.38481 -73.42207 21197 ft 432 kts 64°
2026-05-08 04:48 5.39405 -73.40427 21312 ft 433 kts 60°
2026-05-08 04:48 5.40962 -73.37823 21540 ft 434 kts 57°
2026-05-08 04:48 5.42624 -73.35271 21711 ft 436 kts 56°
2026-05-08 04:49 5.44302 -73.32770 21940 ft 437 kts 56°
2026-05-08 04:49 5.46005 -73.30237 22111 ft 439 kts 56°
2026-05-08 04:49 5.47713 -73.27670 22258 ft 442 kts 56°
2026-05-08 04:49 5.49423 -73.25069 22400 ft 444 kts 56°
2026-05-08 04:50 5.51103 -73.22489 22602 ft 445 kts 57°
2026-05-08 04:50 5.52801 -73.19868 22801 ft 447 kts 57°
2026-05-08 04:50 5.54477 -73.17271 22978 ft 448 kts 57°
2026-05-08 04:50 5.56176 -73.14638 23168 ft 449 kts 57°
2026-05-08 04:51 5.57879 -73.11998 23346 ft 451 kts 57°
2026-05-08 04:51 5.59594 -73.09339 23537 ft 452 kts 57°
2026-05-08 04:51 5.61310 -73.06680 23701 ft 454 kts 57°
2026-05-08 04:51 5.63016 -73.04036 23877 ft 455 kts 57°
2026-05-08 04:52 5.64744 -73.01360 24013 ft 456 kts 57°
2026-05-08 04:52 5.66548 -72.98721 24160 ft 457 kts 52°
2026-05-08 04:52 5.68683 -72.96342 24273 ft 458 kts 43°
2026-05-08 04:52 5.71080 -72.94275 24415 ft 459 kts 39°
2026-05-08 04:53 5.73612 -72.92278 24534 ft 461 kts 37°
2026-05-08 04:53 5.76183 -72.90347 24687 ft 462 kts 36°
2026-05-08 04:53 5.78792 -72.88428 24829 ft 463 kts 36°
2026-05-08 04:53 5.81367 -72.86543 24975 ft 464 kts 36°
2026-05-08 04:54 5.83982 -72.84623 25059 ft 466 kts 36°
2026-05-08 04:54 5.86612 -72.82682 25191 ft 467 kts 36°
2026-05-08 04:54 5.89235 -72.80737 25340 ft 468 kts 36°
2026-05-08 04:54 5.91829 -72.78806 25491 ft 469 kts 36°
2026-05-08 04:55 5.94456 -72.76848 25653 ft 470 kts 36°
2026-05-08 04:55 5.97091 -72.74881 25783 ft 471 kts 36°
2026-05-08 04:55 5.99734 -72.72909 25928 ft 472 kts 36°
2026-05-08 04:55 6.02340 -72.70963 26064 ft 473 kts 36°
2026-05-08 04:56 6.05003 -72.68976 26218 ft 473 kts 36°
2026-05-08 04:56 6.07641 -72.67007 26352 ft 474 kts 36°
2026-05-08 04:56 6.10302 -72.65022 26479 ft 475 kts 36°
2026-05-08 04:56 6.12926 -72.63063 26623 ft 476 kts 36°
2026-05-08 04:57 6.15598 -72.61069 26773 ft 477 kts 36°
2026-05-08 04:57 6.18268 -72.59075 26949 ft 477 kts 36°
2026-05-08 04:57 6.20937 -72.57082 27185 ft 476 kts 36°
2026-05-08 04:57 6.23582 -72.55108 27290 ft 478 kts 36°
2026-05-08 04:58 6.26263 -72.53106 27418 ft 479 kts 36°
2026-05-08 04:58 6.28920 -72.51122 27570 ft 480 kts 36°
2026-05-08 04:58 6.31611 -72.49111 27694 ft 481 kts 36°
2026-05-08 04:58 6.34308 -72.47097 27851 ft 482 kts 36°
2026-05-08 04:59 6.37005 -72.45081 27983 ft 483 kts 36°
2026-05-08 04:59 6.39710 -72.43060 28127 ft 484 kts 36°
2026-05-08 04:59 6.42391 -72.41056 28260 ft 485 kts 36°
2026-05-08 04:59 6.45117 -72.39018 28393 ft 486 kts 36°
2026-05-08 05:00 6.47816 -72.37001 28525 ft 487 kts 36°
2026-05-08 05:00 6.50536 -72.34967 28665 ft 488 kts 36°
2026-05-08 05:00 6.53266 -72.32926 28796 ft 489 kts 36°
2026-05-08 05:00 6.56019 -72.30868 28910 ft 491 kts 36°
2026-05-08 05:01 6.58753 -72.28823 29033 ft 492 kts 36°
2026-05-08 05:01 6.61503 -72.26765 29167 ft 493 kts 36°
2026-05-08 05:01 6.66990 -72.22659 29364 ft 495 kts 36°
2026-05-08 05:02 6.69762 -72.20585 29473 ft 495 kts 36°
2026-05-08 05:02 6.72531 -72.18513 29605 ft 496 kts 36°
2026-05-08 05:02 6.75309 -72.16433 29711 ft 497 kts 36°
2026-05-08 05:02 6.78099 -72.14343 29828 ft 498 kts 36°
2026-05-08 05:03 6.83646 -72.10188 29988 ft 500 kts 36°
2026-05-08 05:03 6.86450 -72.08088 30096 ft 501 kts 36°
2026-05-08 05:03 6.89220 -72.06013 30197 ft 502 kts 36°
2026-05-08 05:04 6.94841 -72.01800 30362 ft 503 kts 36°
2026-05-08 05:04 6.97662 -71.99686 30472 ft 504 kts 36°
2026-05-08 05:04 7.00429 -71.97573 30556 ft 505 kts 38°
2026-05-08 05:05 7.05553 -71.92660 30775 ft 508 kts 44°
2026-05-08 05:05 7.10482 -71.87566 30869 ft 512 kts 45°
2026-05-08 05:06 7.12956 -71.84975 30982 ft 512 kts 45°
2026-05-08 05:06 7.15404 -71.82411 31102 ft 512 kts 45°
2026-05-08 05:06 7.17882 -71.79819 31257 ft 511 kts 45°
2026-05-08 05:06 7.20357 -71.77235 31418 ft 511 kts 45°
2026-05-08 05:07 7.22829 -71.74657 31594 ft 510 kts 45°
2026-05-08 05:07 7.25298 -71.72085 31774 ft 509 kts 45°
2026-05-08 05:07 7.27724 -71.69558 31892 ft 509 kts 45°
2026-05-08 05:07 7.30194 -71.66986 32019 ft 509 kts 45°
2026-05-08 05:08 7.32656 -71.64422 32155 ft 509 kts 45°
2026-05-08 05:08 7.35124 -71.61852 32300 ft 508 kts 45°
2026-05-08 05:08 7.37588 -71.59283 32442 ft 508 kts 45°